Flag for Canada Weather past 2 weeks in Cambridge, Ontario, Canada

Now
57 °F

Passing clouds.


Feels Like: 56 °F
Forecast: 39 / 59 °F
Wind: 7 mph from Northwest

Location: Waterloo Well

Current Time: Sep 18, 2014 at 4:09:17 PM

Latest Report: Sep 18, 2014 at 3:00 PM


Visibility: 9 mi

Pressure: 30.15 "Hg

Humidity: 63%

Dew point: 45 °F

Location of CambridgeLocation

Historic Weather in Cambridge — Graph

°F

Cambridge temperature yesterday

Maximum temperature yesterday: 66 °F (at 2:00 PM)
Minimum temperature yesterday: 39 °F (at 6:00 AM)
Average temperature yesterday: 51 °F

Past Weeks' High & Low Weather Summary

 TemperatureHumidityPressure
High84 °F (Sep 5, 3:00 PM)100% (Sep 4, 12:48 AM)30.37 "Hg (Sep 4, 12:48 AM)
Low37 °F (Sep 14, 4:57 AM)43% (Sep 7, 5:00 PM)29.54 "Hg (Sep 11, 3:00 AM)
Average58 °F83%30.07 "Hg
* Reported Sep 3 3:00 PM — Sep 18 3:00 PM, Cambridge, Weather by CustomWeather, © 2014

Note: Actual official high and low records may vary slightly from our data, if they occured in-between our weather recording intervals... More about our weather records

Advertising

Cambridge weather history for previous 24 hours

 ConditionsComfort  
Time TempWeatherWind HumidityBarometerVisibility
3:00 PM
Sep 18
57 °FPassing clouds.7 mph63%30.15 "Hg9 mi
2:00 PM57 °FPartly sunny.8 mph59%30.15 "Hg9 mi
1:00 PM55 °FPartly sunny.8 mph67%30.15 "Hg9 mi
12:00 PM55 °FScattered clouds.8 mph67%30.14 "Hg9 mi
11:00 AM52 °FOvercast.10 mph77%30.14 "Hg9 mi
10:00 AM52 °FOvercast.12 mph82%30.12 "Hg9 mi
9:00 AM52 °FPassing clouds.10 mph88%30.10 "Hg9 mi
8:00 AM46 °FFog.No wind93%30.09 "Hg4 mi
7:51 AM45 °FFog.No wind100%30.08 "Hg3 mi
7:00 AM43 °FFog.3 mph93%30.06 "Hg5 mi
6:00 AM39 °FFog.3 mph100%30.03 "Hg2 mi
5:00 AM41 °FFog.3 mph100%30.01 "Hg4 mi
4:00 AM43 °FFog.2 mph93%29.99 "Hg2 mi
3:59 AM43 °FFog.No wind93%29.99 "Hg2 mi
3:04 AM41 °FFog.2 mph100%30.00 "Hg1 mi
3:00 AM41 °FLight rain. Fog.2 mph100%30.00 "Hg1 mi
2:01 AM41 °FLight rain. Fog.No wind100%30.00 "Hg1 mi
1:49 AM43 °FLight rain. Fog.No wind100%30.00 "Hg1 mi
1:02 AM43 °FLight rain. Fog.No wind100%30.00 "Hg1 mi
12:01 AM45 °FLight rain. Fog.No wind93%29.99 "Hg1 mi
12:00 AM45 °FLight rain. Fog.No wind93%29.99 "Hg1 mi
11:00 PM
Sep 17
46 °FClear.No wind93%29.99 "Hg9 mi
10:00 PM48 °FClear.No wind94%29.98 "Hg9 mi
9:00 PM50 °FClear.3 mph82%29.98 "Hg9 mi
8:00 PM54 °FSunny.6 mph77%29.98 "Hg9 mi
7:00 PM59 °FSunny.6 mph63%29.97 "Hg9 mi
6:00 PM64 °FPartly sunny.12 mph52%29.97 "Hg9 mi
5:00 PM64 °FScattered clouds.12 mph46%29.97 "Hg9 mi
4:00 PM64 °FPassing clouds.10 mph49%29.97 "Hg9 mi
Weather by CustomWeather, © 2014

See weather overviewHow to use our weather pages